,,Stat5,,Stat1,,Stat2,,Stat3,,Stat4,,Wind1,,Wind1,
time,status,PA1M_AVG,status,PR1M_SUM,status,RH1M_AVG,status,SR1M_AVG,status,TA1M_AVG,status,W1dAve1m,status,W1sAve1m,
2002-06-24, 00:00:01,VALID,919.606,VALID,0,VALID,96.057,VALID,0.0339617,VALID,19.578,VALID,77,VALID,0.699219,
2002-06-24, 00:01:00,VALID,919.606,VALID,0,VALID,95.907,VALID,0.0339617,VALID,19.5717,VALID,73,VALID,0.754687,
2002-06-24, 00:02:00,VALID,919.587,VALID,0,VALID,95.598,VALID,0.0849042,VALID,19.5129,VALID,81,VALID,0.969669,
2002-06-24, 00:03:00,VALID,919.572,VALID,0,VALID,95.7315,VALID,0.0509425,VALID,19.4945,VALID,53,VALID,0.74668,
2002-06-24, 00:04:00,VALID,919.562,VALID,0,VALID,95.3996,VALID,0.0509425,VALID,19.4331,VALID,41,VALID,0.690104,
2002-06-24, 00:05:00,VALID,919.547,VALID,0,VALID,95.3246,VALID,0.0169808,VALID,19.369,VALID,38,VALID,0.858705,
2002-06-24, 00:06:00,VALID,919.55,VALID,0,VALID,95.2406,VALID,0.0169808,VALID,19.2977,VALID,37,VALID,0.887891,
2002-06-24, 00:07:00,VALID,919.547,VALID,0,VALID,95.0575,VALID,0.0679233,VALID,19.1846,VALID,43,VALID,0.869866,
2002-06-24, 00:08:00,VALID,919.539,VALID,0,VALID,95.6832,VALID,0.0339617,VALID,19.1394,VALID,54,VALID,0.871094,
2002-06-24, 00:09:00,VALID,919.53,VALID,0,VALID,96.1473,VALID,0.0339617,VALID,19.1491,VALID,64,VALID,0.940625,
2002-06-24, 00:10:00,VALID,919.523,VALID,0,VALID,96.4258,VALID,0.0169808,VALID,19.162,VALID,73,VALID,1.00426,
2002-06-24, 00:11:00,VALID,919.491,VALID,0,VALID,96.6,VALID,-0.0509425,VALID,19.1567,VALID,76,VALID,0.881473,
2002-06-24, 00:12:00,VALID,919.49,VALID,0,VALID,96.7259,VALID,-0.0849042,VALID,19.157,VALID,80,VALID,0.838867,
2002-06-24, 00:13:00,VALID,919.484,VALID,0,VALID,96.8581,VALID,-0.0849042,VALID,19.1533,VALID,93,VALID,0.92567,
2002-06-24, 00:14:00,VALID,919.487,VALID,0,VALID,97.0171,VALID,-0.101885,VALID,19.1831,VALID,106,VALID,0.818474,
2002-06-24, 00:15:00,VALID,919.487,VALID,0,VALID,96.9802,VALID,-0.0509425,VALID,19.1992,VALID,88,VALID,0.730078,
2002-06-24, 00:16:00,VALID,919.506,VALID,0,VALID,96.8289,VALID,-0.0849042,VALID,19.187,VALID,105,VALID,0.611979,
2002-06-24, 00:17:00,VALID,919.521,VALID,0,VALID,96.7615,VALID,-0.101885,VALID,19.1604,VALID,104,VALID,0.356696,
2002-06-24, 00:18:00,VALID,919.528,VALID,0,VALID,96.7195,VALID,-0.101885,VALID,19.1478,VALID,85,VALID,0.511914,
2002-06-24, 00:19:00,VALID,919.544,VALID,0,VALID,96.5008,VALID,-0.101885,VALID,19.0958,VALID,66,VALID,0.340625,
2002-06-24, 00:20:00,VALID,919.553,VALID,0,VALID,96.53,VALID,-0.0509425,VALID,19.0862,VALID,84,VALID,0.60432,
2002-06-24, 00:21:00,VALID,919.553,VALID,0,VALID,96.6203,VALID,-0.101885,VALID,19.0797,VALID,65,VALID,0.540234,
2002-06-24, 00:22:00,VALID,919.543,VALID,0,VALID,96.497,VALID,-0.0509425,VALID,19.0467,VALID,54,VALID,0.733191,
2002-06-24, 00:23:00,VALID,919.53,VALID,0,VALID,96.5161,VALID,-0.0679233,VALID,19.0213,VALID,55,VALID,0.608929,
2002-06-24, 00:24:00,VALID,919.515,VALID,0,VALID,96.5072,VALID,-0.0509425,VALID,19.0019,VALID,62,VALID,0.695117,
2002-06-24, 00:25:00,VALID,919.5,VALID,0,VALID,96.661,VALID,-0.0849042,VALID,18.9855,VALID,69,VALID,0.591518,
2002-06-24, 00:26:00,VALID,919.471,VALID,0,VALID,96.8874,VALID,-0.0509425,VALID,18.9957,VALID,87,VALID,0.463235,
2002-06-24, 00:27:00,VALID,919.46,VALID,0,VALID,97.0527,VALID,-0.0509425,VALID,18.9957,VALID,114,VALID,0.762305,
2002-06-24, 00:28:00,VALID,919.436,VALID,0,VALID,97.2116,VALID,-0.0849042,VALID,19.0089,VALID,125,VALID,0.837831,
2002-06-24, 00:29:00,VALID,919.424,VALID,0,VALID,97.1684,VALID,-0.101885,VALID,19.0017,VALID,113,VALID,0.83058,
2002-06-24, 00:30:00,VALID,919.41,VALID,0,VALID,97.1506,VALID,-0.0679233,VALID,19.0121,VALID,117,VALID,0.899219,
2002-06-24, 00:31:00,VALID,919.384,VALID,0,VALID,97.0679,VALID,-0.0509425,VALID,19.0148,VALID,99,VALID,1.07388,
2002-06-24, 00:32:00,VALID,919.379,VALID,0,VALID,96.9688,VALID,-0.0849042,VALID,19.0181,VALID,110,VALID,1.18612,
2002-06-24, 00:33:00,VALID,919.359,VALID,0,VALID,96.8479,VALID,-0.0339617,VALID,19.0253,VALID,106,VALID,1.01328,
2002-06-24, 00:34:00,VALID,919.326,VALID,0,VALID,96.7284,VALID,-0.0849042,VALID,18.9989,VALID,110,VALID,0.923059,
2002-06-24, 00:35:00,VALID,919.296,VALID,0,VALID,96.6992,VALID,-0.0849042,VALID,19.0031,VALID,121,VALID,1.07634,
2002-06-24, 00:36:00,VALID,919.265,VALID,0,VALID,96.6369,VALID,-0.101885,VALID,18.9833,VALID,122,VALID,0.94668,
2002-06-24, 00:37:00,VALID,919.265,VALID,0,VALID,96.5618,VALID,-0.101885,VALID,18.9768,VALID,117,VALID,0.979241,
2002-06-24, 00:38:00,VALID,919.258,VALID,0,VALID,96.5046,VALID,-0.101885,VALID,18.9703,VALID,118,VALID,0.701746,
2002-06-24, 00:39:00,VALID,919.248,VALID,0,VALID,96.4003,VALID,-0.0679233,VALID,18.9505,VALID,113,VALID,0.886328,
2002-06-24, 00:40:00,VALID,919.234,VALID,0,VALID,96.2757,VALID,-0.0849042,VALID,18.947,VALID,122,VALID,0.767756,
2002-06-24, 00:41:00,VALID,919.228,VALID,0,VALID,96.1422,VALID,-0.0509425,VALID,18.9279,VALID,101,VALID,1.04397,
2002-06-24, 00:42:00,VALID,919.22,VALID,0,VALID,96.0176,VALID,-0.0679233,VALID,18.9117,VALID,117,VALID,1.08203,
2002-06-24, 00:43:00,VALID,919.213,VALID,0,VALID,95.9489,VALID,-0.0679233,VALID,18.9053,VALID,103,VALID,0.969196,
2002-06-24, 00:44:00,VALID,919.219,VALID,0,VALID,95.9222,VALID,-0.0849042,VALID,18.9179,VALID,105,VALID,0.97886,
2002-06-24, 00:45:00,VALID,919.22,VALID,0,VALID,95.8205,VALID,-0.0339617,VALID,18.9341,VALID,127,VALID,0.967383,
2002-06-24, 00:46:00,VALID,919.229,VALID,0,VALID,95.8001,VALID,-0.0679233,VALID,18.954,VALID,109,VALID,0.980114,
2002-06-24, 00:47:00,VALID,919.24,VALID,0,VALID,95.5496,VALID,-0.0849042,VALID,18.9671,VALID,114,VALID,0.908929,
2002-06-24, 00:48:00,VALID,919.248,VALID,0,VALID,95.6043,VALID,-0.0849042,VALID,18.9796,VALID,103,VALID,0.999219,
2002-06-24, 00:49:00,VALID,919.245,VALID,0,VALID,95.3004,VALID,-0.0679233,VALID,18.9925,VALID,98,VALID,0.933705,
2002-06-24, 00:50:00,VALID,919.236,VALID,0,VALID,95.1821,VALID,-0.101885,VALID,18.9959,VALID,95,VALID,0.982537,
2002-06-24, 00:51:00,VALID,919.225,VALID,0,VALID,95.0435,VALID,-0.101885,VALID,18.9957,VALID,96,VALID,1.01211,
2002-06-24, 00:52:00,VALID,919.231,VALID,0,VALID,95.1186,VALID,-0.0849042,VALID,18.9863,VALID,93,VALID,1.0464,
2002-06-24, 00:53:00,VALID,919.21,VALID,0,VALID,95.2152,VALID,-0.101885,VALID,18.9798,VALID,100,VALID,1.27924,
2002-06-24, 00:54:00,VALID,919.204,VALID,0,VALID,95.3373,VALID,-0.0509425,VALID,18.9858,VALID,89,VALID,0.996289,
2002-06-24, 00:55:00,VALID,919.209,VALID,0,VALID,95.3436,VALID,-0.0339617,VALID,18.9634,VALID,97,VALID,1.09464,
2002-06-24, 00:56:01,VALID,919.219,VALID,0,VALID,95.5802,VALID,-0.0339617,VALID,18.947,VALID,97,VALID,1.17302,
2002-06-24, 00:57:00,VALID,919.209,VALID,0,VALID,95.6094,VALID,-0.0339617,VALID,18.9502,VALID,92,VALID,1.0875,
2002-06-24, 00:58:00,VALID,919.214,VALID,0,VALID,95.6081,VALID,-0.0339617,VALID,18.9083,VALID,97,VALID,1.00331,
2002-06-24, 00:59:00,VALID,919.217,VALID,0,VALID,95.9845,VALID,-0.0679233,VALID,18.8988,VALID,102,VALID,1.2346,
2002-06-24, 01:00:00,VALID,919.229,VALID,0,VALID,96.0367,VALID,-0.0849042,VALID,18.9117,VALID,105,VALID,1.24336,
2002-06-24, 01:01:00,VALID,919.226,VALID,0,VALID,95.9311,VALID,-0.0169808,VALID,18.9117,VALID,96,VALID,0.912946,
2002-06-24, 01:02:01,VALID,919.229,VALID,0,VALID,95.8218,VALID,-0.0339617,VALID,18.876,VALID,101,VALID,0.788143,
2002-06-24, 01:03:00,VALID,919.239,VALID,0,VALID,96.1066,VALID,-0.0679233,VALID,18.8923,VALID,109,VALID,0.852539,
2002-06-24, 01:04:00,VALID,919.233,VALID,0,VALID,95.9273,VALID,-0.0679233,VALID,18.8767,VALID,86,VALID,0.576468,
2002-06-24, 01:05:00,VALID,919.202,VALID,0,VALID,95.9273,VALID,-0.0509425,VALID,18.8439,VALID,103,VALID,0.660268,
2002-06-24, 01:06:00,VALID,919.2,VALID,0,VALID,95.9095,VALID,-0.0339617,VALID,18.818,VALID,95,VALID,0.451758,
2002-06-24, 01:07:00,VALID,919.172,VALID,0,VALID,95.8523,VALID,-0.0169808,VALID,18.7892,VALID,98,VALID,0.385491,
2002-06-24, 01:08:01,VALID,919.148,VALID,0,VALID,96.0176,VALID,-0.0509425,VALID,18.7631,VALID,81,VALID,0.408548,
2002-06-24, 01:09:00,VALID,919.124,VALID,0,VALID,96.1486,VALID,-0.0849042,VALID,18.75,VALID,100,VALID,0.739062,
2002-06-24, 01:10:00,VALID,919.102,VALID,0,VALID,96.5428,VALID,-0.0509425,VALID,18.7731,VALID,107,VALID,0.776752,
2002-06-24, 01:11:00,VALID,919.11,VALID,0,VALID,96.3368,VALID,-0.0169808,VALID,18.7791,VALID,97,VALID,0.706027,
2002-06-24, 01:12:00,VALID,919.107,VALID,0,VALID,96.1142,VALID,0,VALID,18.7698,VALID,92,VALID,0.461328,
2002-06-24, 01:13:00,VALID,919.109,VALID,0,VALID,96.1791,VALID,0,VALID,18.7537,VALID,99,VALID,0.737054,
2002-06-24, 01:14:01,VALID,919.12,VALID,0,VALID,96.2287,VALID,-0.0169808,VALID,18.7505,VALID,87,VALID,0.768153,
2002-06-24, 01:15:00,VALID,919.122,VALID,0,VALID,95.7671,VALID,-0.0169808,VALID,18.6948,VALID,67,VALID,0.84043,
2002-06-24, 01:16:00,VALID,919.121,VALID,0,VALID,95.7862,VALID,-0.0169808,VALID,18.6662,VALID,61,VALID,0.99858,
2002-06-24, 01:17:00,VALID,919.118,VALID,0,VALID,95.9146,VALID,-0.0339617,VALID,18.6566,VALID,74,VALID,1.1192,
2002-06-24, 01:18:00,VALID,919.114,VALID,0,VALID,96.1142,VALID,0,VALID,18.6439,VALID,90,VALID,1.23633,
2002-06-24, 01:19:00,VALID,919.086,VALID,0,VALID,96.3724,VALID,-0.0509425,VALID,18.6536,VALID,109,VALID,1.25067,
2002-06-24, 01:20:01,VALID,919.092,VALID,0,VALID,96.2961,VALID,-0.0339617,VALID,18.6958,VALID,118,VALID,1.23185,
2002-06-24, 01:21:00,VALID,919.068,VALID,0,VALID,96.0252,VALID,-0.0339617,VALID,18.7211,VALID,106,VALID,1.01602,
2002-06-24, 01:22:00,VALID,919.075,VALID,0,VALID,95.6298,VALID,0,VALID,18.7671,VALID,111,VALID,1.08759,
2002-06-24, 01:23:00,VALID,919.079,VALID,0,VALID,95.3271,VALID,-0.0339617,VALID,18.7671,VALID,127,VALID,0.930134,
2002-06-24, 01:24:00,VALID,919.07,VALID,0,VALID,95.2216,VALID,-0.0339617,VALID,18.7569,VALID,136,VALID,0.967773,
2002-06-24, 01:25:00,VALID,919.061,VALID,0,VALID,95.2839,VALID,-0.0339617,VALID,18.7696,VALID,124,VALID,0.889286,
2002-06-24, 01:26:01,VALID,919.052,VALID,0,VALID,95.0295,VALID,-0.0679233,VALID,18.8061,VALID,113,VALID,0.970588,
2002-06-24, 01:27:00,VALID,919.032,VALID,0,VALID,94.9088,VALID,0,VALID,18.8188,VALID,113,VALID,1.23281,
2002-06-24, 01:28:00,VALID,919.017,VALID,0,VALID,94.7447,VALID,-0.0169808,VALID,18.8153,VALID,125,VALID,1.20999,
2002-06-24, 01:29:00,VALID,919.004,VALID,0,VALID,94.8032,VALID,-0.0339617,VALID,18.8121,VALID,125,VALID,1.36607,
2002-06-24, 01:30:00,VALID,918.988,VALID,0,VALID,94.8744,VALID,0,VALID,18.8314,VALID,128,VALID,1.20703,
2002-06-24, 01:31:00,VALID,918.97,VALID,0,VALID,94.9418,VALID,-0.0509425,VALID,18.8444,VALID,115,VALID,1.10714,
2002-06-24, 01:32:01,VALID,918.965,VALID,0,VALID,94.9278,VALID,0,VALID,18.8377,VALID,125,VALID,1.19233,
2002-06-24, 01:33:00,VALID,918.958,VALID,0,VALID,94.9266,VALID,-0.0509425,VALID,18.8247,VALID,120,VALID,1.03965,
2002-06-24, 01:34:00,VALID,918.971,VALID,0,VALID,95.0842,VALID,-0.0339617,VALID,18.8054,VALID,118,VALID,1.27959,
2002-06-24, 01:35:00,VALID,918.965,VALID,0,VALID,95.2355,VALID,-0.0509425,VALID,18.7895,VALID,117,VALID,1.27567,
2002-06-24, 01:36:00,VALID,918.959,VALID,0,VALID,95.2495,VALID,-0.0849042,VALID,18.7798,VALID,112,VALID,1.12773,
2002-06-24, 01:37:00,VALID,918.952,VALID,0,VALID,94.938,VALID,-0.0849042,VALID,18.7216,VALID,101,VALID,1.31451,
2002-06-24, 01:38:01,VALID,918.944,VALID,0,VALID,94.9011,VALID,-0.0169808,VALID,18.6896,VALID,101,VALID,1.4614,
2002-06-24, 01:39:00,VALID,918.93,VALID,0,VALID,94.8108,VALID,-0.0509425,VALID,18.6766,VALID,105,VALID,1.04922,
2002-06-24, 01:40:00,VALID,918.93,VALID,0,VALID,94.8922,VALID,-0.0339617,VALID,18.664,VALID,108,VALID,1.35346,
2002-06-24, 01:41:00,VALID,918.912,VALID,0,VALID,94.9126,VALID,0.0169808,VALID,18.6621,VALID,112,VALID,1.24821,
2002-06-24, 01:42:00,VALID,918.913,VALID,0,VALID,94.8147,VALID,0.0509425,VALID,18.6623,VALID,101,VALID,0.826563,
2002-06-24, 01:43:00,VALID,918.921,VALID,0,VALID,94.8452,VALID,0.0169808,VALID,18.6688,VALID,117,VALID,1.17679,
2002-06-24, 01:44:01,VALID,918.918,VALID,0,VALID,94.7803,VALID,0.0849042,VALID,18.6586,VALID,101,VALID,0.985524,
2002-06-24, 01:45:00,VALID,918.921,VALID,0,VALID,94.8197,VALID,0.0849042,VALID,18.6628,VALID,98,VALID,1.22168,
2002-06-24, 01:46:00,VALID,918.905,VALID,0,VALID,94.5082,VALID,0.0509425,VALID,18.6496,VALID,80,VALID,0.895123,
2002-06-24, 01:47:00,VALID,918.893,VALID,0,VALID,94.5934,VALID,0.0509425,VALID,18.6365,VALID,94,VALID,1.17768,
2002-06-24, 01:48:00,VALID,918.863,VALID,0,VALID,94.6595,VALID,0.0169808,VALID,18.6141,VALID,88,VALID,1.23047,
2002-06-24, 01:49:00,VALID,918.829,VALID,0,VALID,94.8579,VALID,0.0509425,VALID,18.6109,VALID,99,VALID,1.11071,
2002-06-24, 01:50:01,VALID,918.806,VALID,0,VALID,94.9329,VALID,0.0509425,VALID,18.5942,VALID,108,VALID,1.24127,
2002-06-24, 01:51:00,VALID,918.801,VALID,0,VALID,94.9215,VALID,0.0509425,VALID,18.6037,VALID,102,VALID,1.18379,
2002-06-24, 01:52:00,VALID,918.778,VALID,0,VALID,94.8159,VALID,0.0679233,VALID,18.6109,VALID,98,VALID,1.09422,
2002-06-24, 01:53:00,VALID,918.763,VALID,0,VALID,94.5502,VALID,0.0679233,VALID,18.5977,VALID,96,VALID,1.14219,
2002-06-24, 01:54:00,VALID,918.751,VALID,0,VALID,94.4853,VALID,0.0339617,VALID,18.5779,VALID,92,VALID,1.36836,
2002-06-24, 01:55:00,VALID,918.729,VALID,0,VALID,94.3658,VALID,0.0679233,VALID,18.6083,VALID,89,VALID,1.08504,
2002-06-24, 01:56:01,VALID,918.716,VALID,0,VALID,94.1521,VALID,0.0509425,VALID,18.5982,VALID,77,VALID,1.0903,
2002-06-24, 01:57:00,VALID,918.705,VALID,0,VALID,93.9957,VALID,0.0169808,VALID,18.5818,VALID,81,VALID,1.08633,
2002-06-24, 01:58:00,VALID,918.696,VALID,0,VALID,93.8788,VALID,0,VALID,18.5691,VALID,83,VALID,1.02912,
2002-06-24, 01:59:00,VALID,918.691,VALID,0,VALID,93.8953,VALID,0.0169808,VALID,18.5597,VALID,89,VALID,1.13147,
2002-06-24, 02:00:00,VALID,918.677,VALID,0,VALID,94.0288,VALID,0,VALID,18.5631,VALID,95,VALID,1.12207,
2002-06-24, 02:01:00,VALID,918.676,VALID,0,VALID,93.964,VALID,0.0339617,VALID,18.5656,VALID,97,VALID,1.35469,
2002-06-24, 02:02:01,VALID,918.659,VALID,0,VALID,93.791,VALID,0,VALID,18.588,VALID,96,VALID,1.3364,
2002-06-24, 02:03:00,VALID,918.662,VALID,0,VALID,93.5876,VALID,0.0339617,VALID,18.6046,VALID,96,VALID,1.23555,
2002-06-24, 02:04:00,VALID,918.681,VALID,0,VALID,93.3549,VALID,0.0339617,VALID,18.5949,VALID,88,VALID,1.20052,
2002-06-24, 02:05:00,VALID,918.678,VALID,0,VALID,93.1654,VALID,0.0169808,VALID,18.5691,VALID,85,VALID,1.17478,
2002-06-24, 02:06:00,VALID,918.694,VALID,0,VALID,93.2658,VALID,0.0679233,VALID,18.5204,VALID,79,VALID,1.14805,
2002-06-24, 02:07:00,VALID,918.685,VALID,0,VALID,93.3536,VALID,0.0509425,VALID,18.4718,VALID,86,VALID,1.22165,
2002-06-24, 02:08:01,VALID,918.684,VALID,0,VALID,93.8609,VALID,0.0169808,VALID,18.4628,VALID,88,VALID,1.27528,
2002-06-24, 02:09:00,VALID,918.661,VALID,0,VALID,93.819,VALID,0.0339617,VALID,18.4459,VALID,85,VALID,1.0123,
2002-06-24, 02:10:00,VALID,918.641,VALID,0,VALID,93.9945,VALID,0.0169808,VALID,18.4466,VALID,92,VALID,1.07292,
2002-06-24, 02:11:00,VALID,918.618,VALID,0,VALID,94.2501,VALID,-0.0169808,VALID,18.4337,VALID,95,VALID,1.14621,
2002-06-24, 02:12:00,VALID,918.597,VALID,0,VALID,94.6811,VALID,0,VALID,18.4335,VALID,89,VALID,1.35352,
2002-06-24, 02:13:00,VALID,918.569,VALID,0,VALID,94.629,VALID,-0.0339617,VALID,18.4598,VALID,86,VALID,1.17411,
2002-06-24, 02:14:01,VALID,918.565,VALID,0,VALID,94.2704,VALID,0,VALID,18.4593,VALID,78,VALID,1.00506,
2002-06-24, 02:15:00,VALID,918.563,VALID,0,VALID,94.1369,VALID,-0.0169808,VALID,18.4178,VALID,79,VALID,1.16738,
2002-06-24, 02:16:00,VALID,918.551,VALID,0,VALID,94.2234,VALID,0,VALID,18.3816,VALID,79,VALID,1.07244,
2002-06-24, 02:17:00,VALID,918.555,VALID,0,VALID,94.3798,VALID,0,VALID,18.3594,VALID,89,VALID,1.01183,
2002-06-24, 02:18:00,VALID,918.558,VALID,0,VALID,94.6875,VALID,0,VALID,18.3661,VALID,101,VALID,1.20195,
2002-06-24, 02:19:01,VALID,918.55,VALID,0,VALID,94.5921,VALID,-0.0169808,VALID,18.4081,VALID,106,VALID,1.1308,
2002-06-24, 02:20:01,VALID,918.539,VALID,0,VALID,94.4154,VALID,0,VALID,18.4275,VALID,102,VALID,1.28791,
2002-06-24, 02:21:00,VALID,918.542,VALID,0,VALID,94.2157,VALID,0,VALID,18.4702,VALID,104,VALID,1.32246,
2002-06-24, 02:22:00,VALID,918.545,VALID,0,VALID,94.0542,VALID,0,VALID,18.4789,VALID,104,VALID,1.36908,
2002-06-24, 02:23:00,VALID,918.539,VALID,0,VALID,93.8749,VALID,0.0169808,VALID,18.4985,VALID,106,VALID,1.22924,
2002-06-24, 02:24:00,VALID,918.553,VALID,0,VALID,93.641,VALID,0,VALID,18.5179,VALID,102,VALID,1.27383,
2002-06-24, 02:25:01,VALID,918.557,VALID,0,VALID,93.3485,VALID,0,VALID,18.5311,VALID,90,VALID,0.996429,
2002-06-24, 02:26:01,VALID,918.561,VALID,0,VALID,93.454,VALID,-0.0169808,VALID,18.5274,VALID,97,VALID,1.25988,
2002-06-24, 02:27:00,VALID,918.536,VALID,0,VALID,93.379,VALID,0,VALID,18.544,VALID,90,VALID,1.01699,
2002-06-24, 02:28:01,VALID,918.52,VALID,0,VALID,93.3917,VALID,0,VALID,18.5276,VALID,95,VALID,1.19957,
2002-06-24, 02:29:00,VALID,918.499,VALID,0,VALID,93.496,VALID,0,VALID,18.5373,VALID,98,VALID,1.28973,
2002-06-24, 02:30:01,VALID,918.487,VALID,0,VALID,93.4388,VALID,0,VALID,18.5112,VALID,95,VALID,1.10039,
2002-06-24, 02:31:01,VALID,918.476,VALID,0,VALID,93.538,VALID,0,VALID,18.4923,VALID,94,VALID,1.07746,
2002-06-24, 02:32:01,VALID,918.462,VALID,0,VALID,93.5519,VALID,0,VALID,18.4399,VALID,90,VALID,0.953585,
2002-06-24, 02:33:01,VALID,918.469,VALID,0,VALID,93.9538,VALID,-0.0169808,VALID,18.4014,VALID,100,VALID,0.94375,
2002-06-24, 02:34:01,VALID,918.466,VALID,0,VALID,94.1521,VALID,0,VALID,18.3786,VALID,100,VALID,1.36151,
2002-06-24, 02:35:01,VALID,918.444,VALID,0,VALID,94.1432,VALID,0,VALID,18.3691,VALID,101,VALID,1.31629,
2002-06-24, 02:36:01,VALID,918.44,VALID,0,VALID,93.9919,VALID,0.0339617,VALID,18.379,VALID,101,VALID,0.966602,
2002-06-24, 02:37:01,VALID,918.423,VALID,0,VALID,94.0657,VALID,0.0169808,VALID,18.379,VALID,104,VALID,0.939955,
2002-06-24, 02:38:01,VALID,918.416,VALID,0,VALID,94.0224,VALID,0,VALID,18.3786,VALID,94,VALID,0.765625,
2002-06-24, 02:39:01,VALID,918.409,VALID,0,VALID,93.9067,VALID,-0.0169808,VALID,18.3564,VALID,94,VALID,0.596289,
2002-06-24, 02:40:01,VALID,918.41,VALID,0,VALID,93.9474,VALID,0,VALID,18.3239,VALID,95,VALID,0.661222,
2002-06-24, 02:41:01,VALID,918.419,VALID,0,VALID,94.4624,VALID,0.0169808,VALID,18.3209,VALID,95,VALID,0.777679,
2002-06-24, 02:42:01,VALID,918.411,VALID,0,VALID,94.5133,VALID,0,VALID,18.3144,VALID,86,VALID,0.747852,
2002-06-24, 02:43:01,VALID,918.387,VALID,0,VALID,94.5629,VALID,-0.0169808,VALID,18.2658,VALID,85,VALID,0.721875,
2002-06-24, 02:44:01,VALID,918.369,VALID,0,VALID,94.774,VALID,0,VALID,18.2337,VALID,89,VALID,0.955423,
2002-06-24, 02:45:01,VALID,918.351,VALID,0,VALID,95.088,VALID,0,VALID,18.2012,VALID,84,VALID,1.11504,
2002-06-24, 02:46:01,VALID,918.324,VALID,0,VALID,95.3411,VALID,0,VALID,18.1823,VALID,80,VALID,1.07126,
2002-06-24, 02:47:01,VALID,918.308,VALID,0,VALID,95.439,VALID,0,VALID,18.1497,VALID,81,VALID,1.13259,
2002-06-24, 02:48:01,VALID,918.295,VALID,0,VALID,95.4657,VALID,0.0339617,VALID,18.111,VALID,77,VALID,0.982227,
2002-06-24, 02:49:01,VALID,918.287,VALID,0,VALID,95.5357,VALID,0,VALID,18.0591,VALID,83,VALID,1.15982,
2002-06-24, 02:50:01,VALID,918.294,VALID,0,VALID,95.6247,VALID,0.0169808,VALID,18.0395,VALID,79,VALID,0.935892,
2002-06-24, 02:51:00,VALID,918.285,VALID,0,VALID,95.804,VALID,0,VALID,18.0106,VALID,97,VALID,1.22402,
2002-06-24, 02:52:00,VALID,918.267,VALID,0,VALID,95.8307,VALID,0,VALID,18.0432,VALID,98,VALID,1.08239,
2002-06-24, 02:53:00,VALID,918.253,VALID,0,VALID,95.6069,VALID,-0.0169808,VALID,18.0462,VALID,107,VALID,1.09955,
2002-06-24, 02:54:00,VALID,918.247,VALID,0,VALID,95.5458,VALID,0.0169808,VALID,18.0464,VALID,115,VALID,0.958789,
2002-06-24, 02:55:00,VALID,918.235,VALID,0,VALID,95.5535,VALID,0,VALID,18.0694,VALID,91,VALID,0.703571,
2002-06-24, 02:56:00,VALID,918.243,VALID,0,VALID,95.1542,VALID,0,VALID,18.0268,VALID,67,VALID,0.896369,
2002-06-24, 02:57:00,VALID,918.236,VALID,0,VALID,95.2826,VALID,0,VALID,18.0111,VALID,69,VALID,1.09199,
2002-06-24, 02:58:00,VALID,918.254,VALID,0,VALID,95.397,VALID,-0.0169808,VALID,17.9917,VALID,84,VALID,1.00923,
2002-06-24, 02:59:00,VALID,918.264,VALID,0,VALID,95.6323,VALID,-0.0169808,VALID,17.9885,VALID,91,VALID,1.01786,
2002-06-24, 03:00:00,VALID,918.26,VALID,0,VALID,95.8981,VALID,0,VALID,17.9947,VALID,101,VALID,1.06934,
2002-06-24, 03:01:00,VALID,918.263,VALID,0,VALID,95.9006,VALID,0.0169808,VALID,18.0111,VALID,94,VALID,1.0192,
2002-06-24, 03:02:00,VALID,918.261,VALID,0,VALID,95.9426,VALID,0,VALID,18.0339,VALID,94,VALID,1.1381,
2002-06-24, 03:03:00,VALID,918.244,VALID,0,VALID,95.7989,VALID,0,VALID,18.0528,VALID,89,VALID,1.25215,
2002-06-24, 03:04:00,VALID,918.245,VALID,0,VALID,95.5306,VALID,0,VALID,18.0694,VALID,84,VALID,0.995502,
2002-06-24, 03:05:00,VALID,918.234,VALID,0,VALID,95.2915,VALID,0.0169808,VALID,18.066,VALID,83,VALID,1.14844,
2002-06-24, 03:06:00,VALID,918.235,VALID,0,VALID,95.2254,VALID,-0.0169808,VALID,18.0856,VALID,95,VALID,1.13086,
2002-06-24, 03:07:00,VALID,918.215,VALID,0,VALID,94.9939,VALID,0,VALID,18.1271,VALID,106,VALID,1.38951,
2002-06-24, 03:08:00,VALID,918.19,VALID,0,VALID,94.6544,VALID,-0.0339617,VALID,18.1857,VALID,107,VALID,1.1744,
2002-06-24, 03:09:00,VALID,918.187,VALID,0,VALID,94.3073,VALID,0,VALID,18.2404,VALID,110,VALID,1.08184,
2002-06-24, 03:10:00,VALID,918.17,VALID,0,VALID,94.0453,VALID,0.0169808,VALID,18.2722,VALID,123,VALID,1.23911,
2002-06-24, 03:11:00,VALID,918.175,VALID,0,VALID,93.7351,VALID,0.0169808,VALID,18.3147,VALID,122,VALID,0.871205,
2002-06-24, 03:12:00,VALID,918.183,VALID,0,VALID,93.2073,VALID,0,VALID,18.3244,VALID,85,VALID,0.770898,
2002-06-24, 03:13:00,VALID,918.187,VALID,0,VALID,92.4863,VALID,0,VALID,18.2215,VALID,40,VALID,0.752009,
2002-06-24, 03:14:00,VALID,917.778,VALID,0,VALID,92.8945,VALID,-0.0169808,VALID,18.1207,VALID,50,VALID,0.831572,
2002-06-24, 03:15:00,VALID,918.225,VALID,0,VALID,93.5036,VALID,-0.0169808,VALID,18.0464,VALID,51,VALID,1.20117,
2002-06-24, 03:16:00,VALID,918.224,VALID,0,VALID,94.2195,VALID,0,VALID,18.0079,VALID,62,VALID,1.2706,
2002-06-24, 03:17:00,VALID,918.221,VALID,0,VALID,94.6646,VALID,0,VALID,18.0049,VALID,75,VALID,1.35848,
2002-06-24, 03:18:00,VALID,918.237,VALID,0,VALID,94.7358,VALID,0.0169808,VALID,18.0109,VALID,88,VALID,1.26758,
2002-06-24, 03:19:00,VALID,918.242,VALID,0,VALID,94.8642,VALID,0,VALID,18.0242,VALID,96,VALID,1.30647,
2002-06-24, 03:20:00,VALID,918.248,VALID,0,VALID,94.8299,VALID,0.0339617,VALID,18.0565,VALID,89,VALID,1.11512,
2002-06-24, 03:21:00,VALID,918.252,VALID,0,VALID,94.3988,VALID,0,VALID,18.063,VALID,77,VALID,0.962695,
2002-06-24, 03:22:00,VALID,918.24,VALID,0,VALID,93.8953,VALID,0,VALID,17.9982,VALID,63,VALID,0.879972,
2002-06-24, 03:23:00,VALID,918.239,VALID,0,VALID,94.1636,VALID,0,VALID,17.9304,VALID,75,VALID,1.07545,
2002-06-24, 03:24:00,VALID,918.228,VALID,0,VALID,94.835,VALID,0,VALID,17.9274,VALID,85,VALID,1.16172,
2002-06-24, 03:25:00,VALID,918.204,VALID,0,VALID,95.0957,VALID,0,VALID,17.9306,VALID,87,VALID,1.25335,
2002-06-24, 03:26:00,VALID,918.211,VALID,0,VALID,95.3335,VALID,0,VALID,17.9435,VALID,102,VALID,1.1659,
2002-06-24, 03:27:00,VALID,918.204,VALID,0,VALID,95.4505,VALID,-0.0169808,VALID,17.9793,VALID,113,VALID,1.25879,
2002-06-24, 03:28:00,VALID,918.222,VALID,0,VALID,95.2088,VALID,-0.0339617,VALID,18.0083,VALID,117,VALID,1.37192,
2002-06-24, 03:29:00,VALID,918.217,VALID,0,VALID,94.9355,VALID,0,VALID,18.0339,VALID,115,VALID,1.37701,
2002-06-24, 03:30:00,VALID,918.209,VALID,0,VALID,94.4433,VALID,0,VALID,18.057,VALID,119,VALID,1.73672,
2002-06-24, 03:31:00,VALID,918.203,VALID,0,VALID,93.8648,VALID,0,VALID,18.0658,VALID,119,VALID,1.75424,
2002-06-24, 03:32:00,VALID,918.197,VALID,0,VALID,93.365,VALID,-0.0169808,VALID,18.1179,VALID,118,VALID,1.62799,
2002-06-24, 03:33:00,VALID,918.178,VALID,0,VALID,92.8373,VALID,0,VALID,18.1566,VALID,121,VALID,1.24414,
2002-06-24, 03:34:00,VALID,918.182,VALID,0,VALID,92.513,VALID,0,VALID,18.1919,VALID,123,VALID,1.53362,